This demonstration page uses our WeatherBlox Daily Observations layout. Learn more.

Left ArrowRight Arrow

41.12389, -100.76542

Hourly Observations for December 30, 2017

Temp ( °F °C ) Dew Point ( °F °C ) Humidity (%) Winds ( mph kmh ) Pressure ( in mb ) Visibility ( mi km ) Precip ( " mm )
12:53 am 00:53 Clear -4 -20 -8 -22.2 83 83 NW 6 9 30.56 1035 10 16 0.00 0.00
2:53 am 02:53 Clear 1 -17.2 -4 -20 79 79 WNW 5 7 30.56 1035 10 16 0.00 0.00
3:53 am 03:53 Mostly Cloudy -1 -18.3 -5 -20.6 82 82 WNW 3 6 30.55 1035 10 16 0.00 0.00
4:53 am 04:53 Cloudy 0 -17.8 -4 -20 83 83 Calm 30.55 1035 10 16 0.00 0.00
5:53 am 05:53 Cloudy 2 -16.7 -3 -19.4 80 80 Calm 30.58 1035 10 16 0.00 0.00
6:30 am 06:30 Cloudy 3 -16.1 -2 -18.9 79 79 NNE 8 13 30.71 1040 10 16 0.00 0.00
6:53 am 06:53 Cloudy 3 -16.1 -3 -19.4 76 76 ENE 6 9 30.59 1036 10 16 0.00 0.00
7:32 am 07:32 Cloudy 3 -16.1 -4 -20 72 72 NE 8 13 30.71 1040 10 16 0.00 0.00
7:53 am 07:53 Cloudy 3 -16.1 -3 -19.4 76 76 NE 8 13 30.57 1035 10 16 0.00 0.00
8:03 am 08:03 Cloudy 3 -16.1 -3 -19.4 76 76 ENE 8 13 30.71 1040 10 16 0.00 0.00
8:19 am 08:19 Cloudy 3 -16.1 -4 -20 72 72 ENE 7 11 30.71 1040 10 16 0.00 0.00
8:53 am 08:53 Cloudy 3 -16.1 -4 -20 72 72 ENE 5 7 30.57 1035 10 16 0.00 0.00
9:24 am 09:24 Cloudy 3 -16.1 -3 -19.4 76 76 E 6 9 30.71 1040 10 16 0.00 0.00
9:38 am 09:38 Cloudy 2 -16.7 -4 -20 76 76 E 7 11 30.71 1040 10 16 0.00 0.00
9:53 am 09:53 Cloudy 3 -16.1 -3 -19.4 76 76 E 7 11 30.58 1036 10 16 0.00 0.00
10:26 am 10:26 Cloudy 3 -16.1 -4 -20 72 72 E 7 11 30.71 1040 10 16 0.00 0.00
10:46 am 10:46 Cloudy 3 -16.1 -4 -20 72 72 ESE 6 9 30.71 1040 10 16 0.00 0.00
10:53 am 10:53 Cloudy 3 -16.1 -4 -20 72 72 E 8 13 30.57 1035 10 16 0.00 0.00
11:53 am 11:53 Cloudy 4 -15.6 -3 -19.4 73 73 E 8 13 30.53 1034 10 16 0.00 0.00
12:00 pm 12:00 Cloudy 4 -15.6 -4 -20 69 69 ESE 9 15 30.62 1037 10 16 0.00 0.00
12:23 pm 12:23 Cloudy 4 -15.6 -3 -19.4 73 73 VRB 6 9 30.62 1037 10 16 0.00 0.00
12:50 pm 12:50 Cloudy 5 -15 -2 -19 72 72 E 10 17 30.62 1037 10 16 0.00 0.00
12:53 pm 12:53 Cloudy 4 -15.6 -4 -20 69 69 E 10 17 30.53 1034 10 16 0.00 0.00
1:53 pm 13:53 Mostly Cloudy 5 -15 -2 -18.9 72 72 E 12 19 30.44 1031 10 16 0.00 0.00
2:53 pm 14:53 Mostly Cloudy 6 -14.4 -2 -18.9 69 69 SE 13 20 30.36 1028 10 16 0.00 0.00
3:53 pm 15:53 Partly Cloudy 5 -15 -3 -19.4 69 69 SSE 12 19 30.37 1028 10 16 0.00 0.00
4:53 pm 16:53 Mostly Cloudy 4 -15.6 -3 -19.4 73 73 SSE 9 15 30.36 1028 10 16 0.00 0.00
5:01 pm 17:01 Mostly Cloudy 4 -15.6 -3 -19.4 73 73 SSE 10 17 30.48 1032 10 16 0.00 0.00
5:53 pm 17:53 Cloudy 4 -15.6 -2 -18.9 76 76 E 14 22 30.36 1028 10 16 0.00 0.00
6:53 pm 18:53 Cloudy 3 -16.1 -3 -19.4 76 76 E 10 17 30.45 1031 10 16 0.00 0.00
7:53 pm 19:53 Cloudy 3 -16.1 -3 -19.4 76 76 E 10 17 30.48 1032 9 14 0.00 0.03
8:53 pm 20:53 Cloudy 3 -16.1 -3 -19.4 76 76 E 8 13 30.50 1033 10 16 0.00 0.00
9:53 pm 21:53 Cloudy 3 -16.1 -3 -19.4 76 76 E 12 19 30.52 1034 10 16 0.00 0.00
10:53 pm 22:53 Cloudy 3 -16.1 -4 -20 72 72 E 8 13 30.55 1035 10 16 0.00 0.00
11:53 pm 23:53 Cloudy 2 -16.7 -3 -19.4 80 80 E 8 13 30.59 1036 10 16 0.00 0.00

Powered by AerisWeather